Theta_e
290 287 285 285 286 287 287 286 285 283 285 284 282 280 281 281 282 282 284 288 285 288 286 285 284 285 289 290 292 293 289 288 288 290 292 291 291 291 291 292 293 292 294 294 294 294 295 295 296 298 301 306 309 310 312 314 315 316 318 318 319 322 323 325 327 327 327 326 327 327 328 328 328 328 329 329 330 331 332 332 333 332 332 331 327 325
290 287 286 287 288 288 285 285 286 286 284 285 282 282 282 283 286 287 288 286 286 288 284 281 284 287 288 289 291 291 287 291 292 292 291 291 291 291 290 292 292 293 292 292 294 294 291 293 294 293 296 300 304 308 310 312 315 316 317 317 319 319 321 324 326 327 327 328 329 328 328 328 328 326 325 326 327 329 329 330 331 331 332 332 330 325
287 285 289 287 285 284 284 283 283 284 284 281 283 281 283 284 282 285 286 285 286 289 284 282 286 290 291 291 292 291 291 290 289 289 291 290 291 290 290 290 291 291 292 291 292 291 291 291 292 292 294 298 303 304 308 311 312 313 315 317 317 318 320 322 323 324 325 327 327 328 327 328 325 322 325 327 325 324 326 327 329 330 331 331 331 329
286 286 288 286 286 288 285 284 285 284 282 281 282 283 282 282 285 285 285 285 285 286 287 285 285 289 288 285 285 286 288 288 287 287 288 288 290 291 292 290 290 290 291 292 292 292 290 290 290 290 292 295 298 302 303 308 311 313 313 316 317 318 319 320 321 319 322 319 318 318 318 318 323 321 317 319 316 321 323 325 326 328 329 330 330 330
284 287 287 286 286 289 287 285 287 286 285 282 280 280 282 285 283 283 286 284 281 285 283 283 284 285 279 280 282 287 281 282 283 283 284 284 286 289 289 289 290 292 292 292 293 292 291 290 291 291 292 292 297 300 303 305 309 312 313 314 316 316 317 318 317 318 315 314 312 311 311 311 314 312 314 314 317 318 319 321 323 325 326 328 329 330
285 287 285 287 285 284 286 285 284 286 282 285 282 282 283 281 284 284 282 285 277 281 281 281 279 276 277 281 280 281 282 286 284 282 284 285 284 283 285 286 287 288 289 290 292 292 291 291 290 290 289 291 293 297 300 303 307 307 310 311 312 313 313 316 315 315 315 316 317 315 318 317 316 318 316 316 319 318 318 320 322 322 324 326 327 329
284 287 286 288 287 285 285 285 284 286 282 283 286 283 282 283 284 282 282 281 279 279 282 279 279 274 279 281 283 281 281 285 284 281 285 286 287 287 288 289 288 287 287 287 288 289 289 290 290 291 291 291 292 293 295 298 303 305 307 308 311 312 311 311 311 313 314 314 315 316 319 319 318 318 319 319 316 320 318 314 318 321 322 324 325 326
288 287 286 286 286 286 285 285 286 286 285 284 282 281 283 285 285 282 281 282 279 279 282 279 276 278 279 282 281 280 281 283 283 287 288 289 288 289 291 292 291 291 286 287 289 290 290 290 291 293 293 292 293 292 291 296 299 303 305 305 308 308 309 309 311 312 315 316 315 314 315 315 317 317 318 314 313 307 308 311 314 316 319 321 323 325
288 287 286 286 284 284 287 284 286 284 284 283 283 282 282 283 281 280 281 280 280 281 281 276 282 279 276 281 281 280 285 281 282 284 286 287 288 288 290 293 292 292 291 288 290 294 294 294 293 292 292 292 291 291 292 295 297 299 301 302 303 307 308 307 309 311 312 314 315 315 315 315 315 315 315 307 305 308 304 307 307 310 315 318 320 322
289 288 287 288 287 286 285 285 283 286 288 285 282 283 282 282 281 280 278 281 279 278 272 279 280 275 277 278 279 279 283 280 283 288 285 285 286 288 290 291 291 290 290 289 290 290 292 292 292 291 290 291 292 290 291 292 294 296 298 301 302 304 304 304 306 309 310 311 311 313 313 314 315 311 308 305 305 303 301 306 306 306 309 314 317 319
289 290 290 288 288 286 286 285 284 284 287 286 284 287 283 280 279 278 277 276 274 270 273 276 276 278 275 280 279 285 285 280 280 284 285 286 288 290 290 289 291 292 292 292 292 291 291 290 289 289 292 290 291 290 290 292 292 293 296 298 301 302 301 301 305 307 309 310 311 313 313 313 313 311 307 306 306 302 300 304 304 304 306 308 312 315
288 288 290 288 287 285 287 287 285 284 284 286 283 280 285 281 277 277 272 274 272 266 270 275 276 277 275 275 283 281 281 280 285 287 287 288 288 288 289 291 291 290 291 292 293 294 293 294 294 292 293 291 291 291 292 291 291 292 293 295 299 299 299 299 302 303 306 307 309 309 310 311 311 309 309 308 309 307 306 305 305 303 301 303 305 309
287 289 287 290 289 289 287 289 288 288 283 284 283 285 278 271 269 274 265 274 271 268 278 276 277 278 278 280 283 283 283 282 280 283 288 289 287 287 289 290 289 289 289 292 293 294 296 295 295 295 293 292 291 291 290 290 290 291 293 294 298 298 296 297 299 301 302 303 306 307 308 308 306 307 308 308 308 306 307 306 305 303 304 301 301 305
285 283 287 289 290 290 290 288 284 285 284 283 286 279 274 270 266 264 258 260 265 271 276 278 278 277 278 281 284 288 289 285 283 283 283 284 286 286 287 288 288 289 289 290 291 294 294 294 295 294 294 293 291 289 289 288 289 290 293 293 295 296 294 294 296 298 300 302 304 303 305 306 305 306 306 307 307 307 306 305 305 305 305 305 304 304
278 280 286 289 287 290 290 289 291 288 286 286 282 284 280 268 266 264 263 271 270 270 273 275 274 272 276 282 285 282 283 282 282 282 282 282 283 284 283 284 286 289 291 290 294 294 294 295 292 294 295 295 295 293 290 288 288 289 292 292 294 294 294 294 295 296 298 300 300 300 301 303 303 305 305 306 306 305 305 304 304 305 304 304 304 304
284 281 283 287 287 289 290 289 287 287 286 283 280 281 279 276 274 270 265 264 264 269 271 273 274 275 282 284 284 283 282 284 282 283 282 284 284 283 288 290 290 291 292 292 293 295 295 294 294 295 295 295 295 293 293 292 290 291 291 291 292 293 294 293 293 295 296 298 298 297 299 301 301 301 302 303 302 303 303 304 304 304 303 303 303 300
281 282 285 285 286 288 289 287 288 288 285 284 283 278 280 278 279 270 268 270 270 267 271 269 277 280 280 283 283 280 284 286 282 284 283 285 287 286 289 290 290 291 290 292 293 293 294 294 295 294 294 295 296 296 295 293 291 291 291 292 292 292 291 293 293 294 294 295 295 297 298 299 299 300 301 303 302 302 301 301 302 302 302 300 299 301
283 281 285 286 288 288 287 286 286 285 285 284 279 281 282 280 279 276 272 265 262 268 270 272 275 276 275 278 280 282 283 286 284 284 285 286 285 288 290 290 291 291 291 291 291 291 291 291 292 293 294 293 294 293 294 293 291 290 290 291 292 292 292 292 292 294 294 294 295 296 296 297 299 300 300 300 301 300 300 300 300 298 299 300 300 299
285 281 284 284 285 288 286 289 288 288 286 283 281 284 285 278 277 276 271 268 266 265 265 269 272 273 276 278 278 283 281 283 285 284 286 288 288 289 290 291 290 291 291 292 292 293 293 293 293 292 292 291 292 293 292 292 292 293 291 290 291 292 291 292 292 292 292 292 295 296 296 296 298 298 299 299 298 297 299 300 299 299 300 297 296 297
285 279 280 285 285 286 286 286 284 284 286 285 285 284 284 279 274 273 274 269 272 266 263 267 268 275 277 279 280 284 282 284 285 285 288 288 288 289 289 290 290 291 290 291 291 292 292 292 292 292 292 293 293 293 293 292 293 293 292 291 292 292 291 291 291 290 291 292 292 294 293 294 295 296 297 297 297 298 298 299 299 299 297 298 296 297
284 281 276 283 286 286 285 284 285 286 282 282 283 281 285 279 281 279 276 273 274 263 262 265 267 271 277 279 280 282 281 284 287 288 287 287 287 287 289 290 291 291 291 291 291 292 292 292 292 292 291 291 291 291 293 293 292 292 292 293 292 292 293 294 293 291 292 290 291 290 292 293 292 293 294 294 294 296 297 298 296 297 297 292 295 293
283 282 279 282 282 283 282 283 284 287 288 286 286 283 286 281 278 276 276 276 267 271 268 263 273 272 280 280 283 282 283 285 288 290 289 287 287 288 289 290 289 292 291 290 290 290 292 292 292 292 292 292 293 293 292 292 293 293 292 291 291 291 293 292 294 293 293 292 291 290 291 291 289 291 290 291 292 293 295 295 295 294 290 293 296 292
285 281 282 276 282 285 285 286 283 284 285 284 285 285 285 283 280 273 272 274 271 274 271 268 269 275 281 280 280 283 281 285 286 287 289 287 287 287 289 287 287 286 289 289 288 288 289 289 289 289 289 290 290 290 289 291 292 291 291 290 290 290 292 290 291 290 289 290 290 290 289 288 289 289 288 289 291 290 292 292 290 289 292 293 293 290
290 281 280 278 279 280 283 284 285 284 287 287 284 281 283 283 282 279 273 275 279 272 273 270 268 274 278 280 281 280 280 281 283 285 288 286 286 286 286 289 289 289 288 288 287 287 287 287 287 291 292 292 292 291 291 291 291 291 291 291 291 292 292 291 291 290 290 290 290 288 287 288 288 287 287 288 290 290 290 291 290 288 289 291 291 291
284 282 283 272 272 276 279 282 283 285 286 282 282 282 283 280 278 275 273 271 273 275 276 275 273 272 281 281 283 281 282 284 285 286 284 288 288 289 290 288 286 286 288 288 288 288 288 287 289 290 290 290 290 289 289 290 290 290 290 290 291 291 290 290 290 290 290 289 290 290 290 289 288 287 288 288 288 289 289 289 289 288 289 289 290 290
286 283 282 277 276 274 272 273 279 282 282 281 279 281 282 285 280 281 278 276 274 273 278 272 274 276 278 283 285 285 285 285 285 284 282 284 287 289 289 287 287 286 289 288 287 288 289 289 288 288 288 288 288 288 288 289 289 290 290 290 288 290 290 290 288 289 289 289 289 290 290 290 290 290 289 289 289 289 289 289 288 289 288 288 290 290
281 282 284 284 282 280 282 281 283 285 282 282 281 283 283 284 284 284 279 274 279 276 275 279 280 280 282 284 284 286 284 286 287 286 287 288 286 286 285 287 287 288 287 287 287 288 287 287 288 289 289 288 288 288 288 289 290 290 290 290 289 289 289 289 289 290 289 289 288 289 290 290 290 291 290 290 289 289 289 289 288 288 289 288 289 289
278 282 283 283 284 284 281 280 282 287 284 285 283 283 284 284 283 283 282 282 282 276 276 281 280 279 282 282 284 285 284 283 284 284 285 285 286 289 289 286 289 287 287 288 288 288 288 288 288 288 288 289 289 289 289 288 288 289 289 289 289 289 288 289 289 289 289 289 289 289 290 290 289 290 290 290 289 289 289 289 289 288 288 287 288 289
282 281 281 282 282 281 279 280 282 284 285 285 285 284 283 284 283 282 284 286 283 282 281 282 282 282 284 285 287 287 287 287 287 286 288 289 288 287 286 286 287 286 288 289 289 289 289 289 288 288 288 288 289 289 289 289 289 288 288 287 287 287 288 287 287 287 288 288 288 289 289 289 289 289 288 289 289 289 289 289 289 289 288 287 288 288
285 277 280 281 282 281 280 281 281 285 283 283 284 284 285 284 284 285 286 287 285 284 286 281 283 284 285 285 288 288 286 286 287 287 287 288 287 285 285 286 287 287 287 288 288 288 288 287 287 287 287 288 288 288 288 289 289 289 288 288 288 287 287 286 286 286 286 286 287 287 287 287 287 287 287 288 288 288 288 288 288 288 288 288 288 288
286 279 285 281 278 279 280 281 281 281 282 282 281 283 284 284 285 285 286 286 285 284 283 280 280 282 286 286 287 288 287 288 288 289 289 287 286 285 285 286 286 286 286 286 287 287 287 286 286 286 287 287 287 287 288 288 288 287 287 287 287 287 286 285 285 285 286 287 286 286 286 285 286 286 286 287 286 287 287 288 287 287 287 287 287 288
286 279 282 280 277 274 280 280 280 280 280 281 280 281 282 282 282 284 283 285 283 283 285 283 282 284 286 287 287 287 288 289 290 289 288 287 284 283 285 285 286 287 286 286 285 285 286 286 286 287 287 287 287 287 287 287 287 287 288 287 287 287 286 286 286 286 286 286 286 286 286 286 286 285 285 285 286 286 286 286 286 286 287 287 287 287
284 283 280 277 277 272 279 280 280 279 279 277 280 283 283 284 286 286 286 284 287 289 285 282 284 291 287 287 287 286 288 289 288 287 287 287 286 285 286 286 287 286 287 286 285 284 284 285 285 285 286 286 287 287 287 286 286 287 287 287 286 286 286 286 286 286 287 287 287 287 287 287 287 286 286 286 286 286 285 285 285 285 286 287 286 285
283 284 279 280 278 273 275 277 278 279 274 277 287 287 286 285 284 284 284 286 287 288 287 288 288 286 285 285 288 288 287 287 289 289 287 290 288 285 285 285 286 286 284 283 284 283 284 284 285 285 285 285 285 285 285 285 285 286 285 285 285 285 285 285 286 286 286 286 286 286 286 286 286 286 286 286 286 286 286 286 286 286 286 286 286 285
284 283 281 279 278 276 274 277 279 275 277 285 284 287 290 288 286 286 288 287 286 286 287 287 288 287 287 289 289 288 289 288 285 287 286 285 287 286 286 285 286 285 285 284 283 284 284 284 284 284 285 285 285 285 284 285 284 285 285 284 284 284 284 285 285 285 286 286 286 286 286 285 285 285 285 285 285 286 286 286 286 287 287 287 287 286
285 284 281 279 279 279 278 280 275 277 285 284 283 284 285 288 286 285 285 286 286 287 288 288 290 291 289 288 287 286 287 284 286 285 285 285 285 286 284 285 286 285 285 285 285 284 284 285 285 285 285 284 283 284 283 285 285 285 285 284 283 284 284 284 284 285 285 286 285 285 285 284 284 284 284 284 285 285 285 285 286 286 287 287 287 286
288 286 285 281 285 279 280 281 280 283 283 283 284 283 286 285 284 285 282 286 289 289 289 289 290 290 287 286 284 283 284 285 285 286 285 284 284 284 285 286 286 286 285 283 284 284 283 283 284 284 284 284 284 285 285 285 284 284 284 284 285 284 284 284 285 285 285 285 285 284 284 284 283 283 283 283 283 284 284 284 285 286 285 285 286 286
290 287 286 285 282 285 281 279 280 280 278 283 286 284 287 287 290 289 287 285 288 290 291 290 290 290 287 282 283 284 285 285 282 284 285 284 282 284 285 284 282 282 282 282 283 284 283 284 284 283 283 284 284 284 284 284 283 283 283 284 284 284 284 284 285 285 285 285 284 284 284 283 283 282 282 283 282 283 283 284 284 285 284 284 284 285
287 288 287 286 283 283 281 279 279 277 281 287 286 286 287 288 290 287 286 283 288 287 290 291 290 290 287 285 283 285 286 283 284 285 287 284 282 282 285 285 283 282 282 283 283 284 285 285 284 283 283 283 284 285 283 282 281 282 283 283 283 283 283 284 285 285 284 284 284 283 283 282 282 282 282 282 282 282 282 283 283 283 283 283 283 283
286 285 286 284 282 284 282 280 278 282 281 284 283 283 284 285 290 289 279 280 288 285 288 289 290 290 287 286 285 286 287 284 285 284 286 285 283 282 283 286 284 284 283 282 283 282 283 282 283 285 285 284 284 284 283 282 282 281 282 282 282 282 283 284 284 284 284 283 283 283 282 282 281 281 281 281 281 281 281 281 281 281 282 282 282 282
284 284 285 282 283 283 284 281 282 283 285 282 283 282 282 287 289 281 277 284 285 284 286 289 290 287 286 284 285 285 285 283 284 285 284 283 283 283 282 282 283 284 284 282 283 283 282 282 282 283 283 283 283 283 282 281 281 282 282 281 281 282 283 283 283 283 283 282 282 282 281 281 280 280 280 279 279 280 280 279 280 280 280 280 280 280
284 285 284 285 283 282 283 281 281 283 285 283 282 283 285 288 280 278 285 281 283 283 280 282 284 283 286 285 284 282 283 282 283 282 283 283 284 282 282 282 282 281 281 281 281 281 281 280 282 282 282 282 282 281 281 280 280 281 281 280 281 282 282 282 282 282 281 281 281 280 280 280 280 280 279 279 278 278 279 279 278 278 278 278 278 278
284 284 280 282 284 284 282 281 280 277 285 286 286 285 284 282 282 286 282 282 282 282 281 281 283 283 285 283 283 284 282 282 283 283 283 282 282 283 283 283 282 282 281 281 281 280 281 280 281 282 282 282 281 281 280 277 278 280 280 280 281 282 282 282 281 281 280 279 279 279 279 279 279 279 279 278 278 277 277 278 278 278 276 276 276 277
288 283 283 284 287 280 281 278 279 286 286 287 290 286 285 286 284 284 285 282 280 280 281 282 281 282 282 285 283 283 284 283 281 282 282 281 281 281 281 280 280 280 280 280 280 280 279 280 280 281 281 281 279 277 278 276 278 278 279 280 282 281 281 280 280 279 278 278 278 278 278 278 278 278 277 277 277 276 276 277 278 277 276 275 275 276
286 284 286 283 287 285 283 285 288 286 287 288 286 285 283 284 282 283 283 284 284 282 280 284 284 281 282 284 284 284 282 282 282 282 282 281 280 280 280 280 280 280 280 280 280 279 278 279 279 279 279 279 279 279 276 275 275 277 277 279 280 280 280 279 278 277 277 277 277 277 278 278 278 277 277 276 275 275 277 277 277 277 277 274 275 275
282 283 283 284 283 284 284 284 284 282 283 284 281 282 282 282 281 281 282 285 283 282 282 285 283 281 280 283 284 280 282 282 281 280 279 279 279 279 280 279 279 279 279 278 277 278 276 276 274 274 276 277 277 278 276 275 274 276 278 279 278 278 278 277 276 276 276 276 277 277 277 277 277 277 277 276 275 274 275 275 275 276 276 274 275 275
280 280 284 281 281 284 280 283 282 283 280 280 281 281 280 280 281 280 283 283 282 281 281 280 282 282 282 281 284 283 281 280 281 280 279 279 278 279 279 279 279 278 276 275 277 275 275 273 274 273 273 274 275 276 276 274 274 276 277 277 277 277 276 275 275 275 275 275 276 277 276 276 276 277 277 276 275 274 274 274 274 274 275 275 275 275
281 282 283 279 280 282 279 281 281 280 278 278 279 282 282 280 280 280 280 281 282 282 282 281 282 281 280 281 281 282 280 279 279 279 278 278 277 278 277 277 276 275 274 274 273 272 271 272 272 273 273 273 275 275 275 275 274 275 275 275 276 275 274 274 274 274 275 275 275 276 276 275 276 276 276 276 275 275 276 275 273 274 275 276 276 276
280 284 275 279 283 280 281 281 279 279 279 280 279 278 280 280 281 281 282 282 282 281 280 280 280 280 280 280 280 280 279 278 277 277 277 277 276 276 275 275 273 273 272 271 271 271 271 271 271 271 271 271 272 272 272 272 272 273 273 274 274 274 274 274 274 274 274 274 275 275 276 275 275 275 275 275 275 275 274 275 275 276 275 276 276 277
282 281 279 281 275 275 280 282 279 278 275 281 280 280 280 280 281 280 280 280 280 280 280 279 278 277 276 277 277 277 276 276 275 274 272 275 273 272 272 271 270 269 269 269 270 269 269 268 269 268 269 270 270 269 269 269 270 271 272 273 274 274 273 273 273 273 274 275 275 275 276 276 276 275 275 275 275 275 276 277 279 278 276 276 279 281
282 282 280 279 280 279 283 282 285 284 282 282 282 280 281 280 280 280 280 279 278 279 279 278 277 275 275 273 273 273 273 273 272 270 269 270 270 270 269 269 268 268 268 268 268 267 266 267 267 267 266 267 267 267 267 268 270 271 272 274 275 274 273 272 272 273 273 274 275 275 276 276 276 277 277 277 276 276 276 276 278 281 282 282 281 282
Wind_Speed
1 6 7 9 8 8 6 4 4 3 7 5 4 4 3 3 1 2 1 1 0 1 3 3 4 5 11 11 12 13 3 5 6 9 9 7 7 7 7 8 9 9 13 2 4 5 6 6 6 6 6 7 6 7 8 9 10 11 12 10 12 10 8 8 8 8 8 9 7 7 9 10 6 6 6 6 6 5 5 8 10 11 9 9 11 12
3 4 7 7 8 7 6 8 9 9 4 6 5 5 1 0 1 0 1 2 3 1 1 1 3 9 11 11 12 9 4 10 11 10 9 10 8 7 7 10 9 10 5 5 7 6 5 5 5 4 5 5 6 10 9 12 14 11 8 10 11 6 8 10 11 10 9 10 10 9 9 8 6 6 7 7 6 7 5 6 7 8 10 11 10 9
3 8 7 4 4 10 6 4 4 6 6 3 6 4 3 2 2 3 1 2 3 1 5 1 5 10 11 11 12 7 8 6 5 5 7 6 8 7 7 8 9 8 10 6 8 5 5 6 6 4 5 6 10 7 9 10 7 7 9 11 10 9 9 10 10 9 11 9 8 9 6 7 5 4 6 6 5 5 6 6 7 7 7 7 8 10
2 5 7 5 6 9 3 3 8 8 7 6 5 4 5 2 2 1 3 2 4 2 2 2 5 11 7 7 11 7 5 6 5 5 8 5 8 10 9 5 5 8 9 11 8 6 4 5 5 4 5 6 4 5 5 7 10 8 8 9 10 10 9 9 10 10 7 5 4 3 2 2 4 4 3 4 4 5 7 8 6 6 6 6 7 7
6 1 0 8 3 8 5 1 6 5 2 1 4 4 4 2 2 2 1 1 0 1 2 2 3 8 4 5 4 1 4 4 4 7 5 4 5 7 8 7 7 11 9 10 10 8 6 5 5 5 5 3 5 6 6 5 7 7 9 7 6 6 7 6 6 8 4 4 4 3 2 2 1 1 1 3 5 6 6 6 7 8 5 5 7 8
2 1 4 7 4 4 6 2 3 8 1 1 3 5 3 4 5 0 1 1 4 1 5 3 3 3 4 7 7 7 8 11 4 5 6 7 6 5 5 7 6 5 4 7 8 8 7 7 7 5 3 3 4 5 5 5 6 5 5 5 5 5 4 5 4 5 5 6 7 6 6 6 6 7 6 9 10 8 8 10 6 5 7 7 7 6
2 0 1 6 6 4 5 5 4 4 6 3 4 4 3 6 6 5 3 3 1 1 2 2 2 4 6 6 6 6 8 9 9 5 6 6 6 5 5 5 6 5 5 4 4 5 5 6 5 5 4 3 3 5 4 4 5 6 5 5 5 5 4 4 4 5 6 6 6 9 10 10 10 10 10 8 6 7 7 4 6 7 6 8 9 9
2 1 4 4 5 5 5 4 3 8 8 3 1 6 7 7 7 4 5 2 1 1 2 5 3 1 7 8 4 5 6 8 7 8 7 7 7 6 6 5 5 5 3 3 4 4 3 2 2 4 5 4 4 4 3 3 3 4 5 4 5 4 5 5 5 7 8 8 8 8 9 9 9 10 11 7 6 4 4 5 7 6 7 7 9 9
2 4 4 4 1 4 7 3 5 5 6 2 2 5 4 6 5 5 5 5 1 1 5 4 1 0 4 8 5 3 3 3 6 5 5 6 6 6 7 7 7 5 4 3 3 5 6 5 4 3 3 4 4 3 2 1 1 1 2 3 4 5 5 4 6 7 7 8 8 9 8 9 9 8 7 3 3 5 4 5 5 6 6 7 8 9
3 2 3 5 6 5 2 1 2 5 4 1 6 7 7 7 6 4 4 4 1 2 4 2 2 2 8 7 6 2 2 4 1 1 4 5 5 5 6 7 5 4 4 2 3 4 5 5 5 4 3 4 4 4 3 2 1 1 2 3 4 4 3 4 5 6 6 7 7 8 8 10 9 6 4 2 4 4 3 6 5 5 5 6 7 7
1 3 4 4 3 2 5 2 1 2 1 9 4 8 7 8 4 3 6 3 3 1 5 2 4 1 3 5 4 1 1 2 3 2 3 5 5 6 5 5 6 6 6 6 5 5 4 3 3 5 5 4 4 4 4 4 3 2 2 3 3 2 2 3 5 6 8 7 7 9 9 10 10 7 5 5 6 4 4 6 6 5 6 5 6 5
1 1 1 0 3 3 3 5 5 3 4 5 3 4 6 4 6 4 5 5 1 4 3 2 1 1 5 5 3 8 3 3 3 3 3 5 6 6 6 7 7 6 5 5 7 7 6 7 7 6 7 6 5 4 5 4 3 3 2 2 2 1 3 4 4 4 5 5 5 5 5 7 7 5 6 7 9 7 8 7 7 5 4 5 5 5
2 2 1 3 3 6 4 9 5 1 3 5 7 7 7 2 4 2 4 1 4 4 1 2 1 1 6 9 3 5 6 5 6 5 0 4 5 6 6 7 6 5 5 6 7 7 9 8 8 8 6 5 6 5 4 3 3 2 1 1 1 3 2 2 2 4 4 4 5 6 6 6 5 5 6 7 8 5 7 6 6 5 7 5 5 6
3 1 1 1 2 3 5 11 2 2 1 4 8 7 6 2 1 2 2 1 5 5 4 1 1 2 5 9 10 13 10 4 5 6 6 5 4 5 6 6 6 5 4 5 6 7 7 7 7 6 7 6 5 4 4 4 3 2 1 0 1 4 1 2 2 3 4 5 5 4 5 5 5 6 6 7 7 6 6 6 7 7 8 7 8 7
4 3 6 7 2 3 1 3 11 7 9 6 1 7 8 8 5 4 3 4 4 4 3 3 1 6 3 2 1 4 4 3 3 3 5 4 5 6 7 6 3 5 6 5 7 7 7 7 6 7 7 7 7 6 5 4 3 3 1 0 1 4 3 2 3 2 4 5 4 4 4 5 5 7 6 7 6 6 6 6 7 7 6 7 7 8
7 3 3 2 1 2 7 1 4 6 6 0 3 5 5 4 6 1 3 2 0 0 1 1 5 4 3 1 4 2 5 3 2 1 0 2 2 2 2 4 5 5 6 6 7 8 8 7 7 9 9 8 7 6 5 5 4 2 2 2 3 4 4 3 3 4 4 5 4 4 5 7 6 6 5 5 5 6 6 7 7 7 6 6 6 5
3 4 1 6 3 2 1 0 0 1 8 4 4 4 3 2 11 6 1 1 1 4 6 1 7 6 8 6 1 3 1 1 3 2 4 2 1 3 4 3 5 5 5 5 6 6 8 9 10 8 8 9 9 10 8 6 4 4 3 1 2 3 4 4 4 4 4 4 4 5 5 5 5 6 7 8 7 7 6 6 6 6 7 5 5 7
9 3 2 3 2 1 0 1 3 5 2 9 1 7 2 2 5 5 3 3 4 3 7 1 5 4 2 6 3 2 3 1 1 3 4 3 4 5 2 2 2 4 3 2 4 4 4 5 6 7 7 7 8 7 9 9 5 3 2 2 3 3 4 4 4 5 4 5 5 5 5 5 6 6 7 6 7 6 6 7 6 5 6 7 7 6
7 3 0 1 0 4 2 0 4 2 3 3 3 4 5 3 1 2 5 1 1 2 4 3 1 4 5 6 2 1 6 6 4 4 6 6 6 5 4 3 1 0 3 6 7 7 9 9 8 6 6 5 6 7 6 6 7 6 6 4 3 4 4 4 4 4 4 4 5 5 5 5 6 6 6 6 6 5 6 8 7 7 8 5 5 6
1 5 2 1 2 1 2 3 9 3 3 2 3 4 0 3 2 4 6 3 5 4 2 5 2 5 7 6 9 6 8 7 7 7 8 8 7 6 5 4 5 6 5 5 5 5 5 6 7 7 8 10 10 9 8 7 8 10 7 7 8 5 3 3 3 3 4 4 5 5 4 5 5 5 5 5 5 6 7 8 6 6 6 7 5 6
3 1 4 1 2 2 3 4 9 10 9 2 3 2 0 2 1 5 1 3 3 5 5 2 4 4 7 7 4 3 6 8 9 10 7 7 6 5 5 5 4 2 4 4 4 6 7 7 7 7 6 6 6 6 8 9 9 6 7 10 9 9 10 9 6 5 4 4 4 4 5 5 4 5 5 5 5 6 7 6 6 6 6 4 7 5
3 1 7 2 3 5 5 1 1 7 6 10 11 11 11 9 5 5 6 2 2 3 4 4 9 5 9 1 5 6 6 8 6 12 8 6 5 4 2 1 1 3 3 3 4 5 6 8 8 7 7 8 10 11 11 9 9 10 9 7 8 8 8 9 10 8 9 7 5 5 5 5 4 4 4 5 5 6 7 7 6 6 5 6 8 5
4 3 8 4 7 7 1 0 2 1 0 2 3 7 7 3 7 5 6 5 3 1 5 3 1 9 7 3 3 5 4 5 5 5 8 5 4 2 1 1 2 2 2 4 5 4 5 5 5 4 5 6 7 6 6 7 8 7 6 7 6 6 8 6 6 6 5 6 6 6 5 5 5 4 4 5 6 6 8 7 6 5 6 7 7 5
5 4 4 2 2 3 2 2 1 1 1 1 2 2 5 8 5 6 2 7 8 2 1 1 1 7 4 0 2 5 5 4 2 2 6 4 2 1 0 0 1 3 5 5 4 3 4 5 5 7 9 10 10 9 9 8 7 7 7 8 7 9 9 8 6 6 6 6 6 5 5 5 5 5 5 5 6 7 7 7 6 5 6 7 6 7
4 3 8 2 2 4 3 2 2 2 1 3 3 3 2 4 5 2 5 1 2 8 8 9 9 3 3 4 2 3 5 4 4 2 1 3 1 0 0 1 2 3 3 3 3 3 3 3 5 6 5 6 7 6 6 7 6 6 8 8 9 8 7 7 7 7 8 7 10 9 8 7 6 6 6 6 5 7 7 6 6 5 6 6 7 7
4 4 8 8 10 10 7 7 13 14 11 2 1 2 4 8 6 5 2 1 2 3 7 5 7 5 5 2 3 3 6 4 2 2 2 0 1 2 1 3 2 1 1 2 2 1 1 1 1 2 3 4 5 5 5 5 5 7 6 6 5 7 8 7 7 7 8 8 9 10 10 9 8 8 8 8 7 7 7 7 6 6 5 6 8 7
3 1 5 9 13 15 13 2 3 10 5 6 4 8 5 4 7 4 5 4 11 4 7 8 5 2 3 2 2 6 5 7 5 3 3 2 3 5 5 4 3 2 3 5 3 1 1 2 2 1 0 0 1 1 2 5 7 7 7 7 6 6 7 8 9 8 8 9 7 9 10 10 9 10 9 8 8 7 7 7 6 6 7 6 7 7
3 4 8 8 9 7 3 3 5 8 9 8 9 8 9 10 9 9 10 14 6 8 8 10 5 6 7 5 7 8 5 5 6 5 3 3 4 6 6 4 3 1 1 3 4 4 3 2 1 1 2 3 5 6 7 6 5 6 7 8 7 7 6 8 8 8 8 8 8 8 9 9 8 9 9 9 8 8 8 7 7 6 6 5 7 7
5 7 4 4 7 5 2 4 7 5 8 10 13 13 12 12 10 13 15 15 8 10 17 4 11 9 8 9 12 12 11 11 10 8 6 6 5 4 4 4 4 3 1 4 9 9 8 8 7 8 9 9 9 10 8 6 6 5 5 4 5 5 6 6 6 6 7 7 7 8 8 7 7 7 8 8 8 9 9 9 8 8 7 6 7 7
3 4 4 5 7 4 2 3 4 8 3 2 8 12 15 14 16 18 18 17 14 11 12 6 12 15 6 10 13 9 7 7 4 4 3 4 2 2 2 4 6 7 8 7 6 6 5 5 6 6 6 7 8 8 8 8 8 7 7 7 6 6 6 5 5 5 5 5 5 5 6 6 6 7 7 8 8 9 9 9 9 8 8 8 7 8
5 4 6 4 4 5 1 1 0 4 5 6 5 7 10 13 16 19 17 16 10 9 5 2 2 10 7 8 7 1 6 2 4 4 1 1 1 3 4 4 4 4 4 4 4 6 5 5 5 5 6 6 7 7 7 7 6 6 5 5 5 6 5 4 4 4 4 5 5 5 5 5 5 5 6 6 6 7 7 9 8 8 9 8 8 9
3 3 2 3 4 3 1 3 2 2 0 2 4 6 11 12 12 11 10 6 6 10 12 9 8 14 4 8 5 3 2 3 5 5 1 1 1 3 4 3 3 2 2 3 3 4 5 6 6 7 7 7 6 6 6 8 8 7 8 8 8 8 7 6 6 6 6 5 5 5 5 5 5 5 5 5 6 6 7 7 7 7 8 8 9 8
3 5 5 3 5 4 2 4 7 5 2 3 9 14 19 15 12 9 7 5 12 16 12 8 16 13 4 10 7 3 6 8 6 3 1 0 1 4 5 4 1 0 0 1 2 4 4 5 5 5 6 6 7 7 7 6 7 8 9 10 10 9 9 9 8 9 8 8 8 8 9 9 10 9 9 8 7 6 6 6 6 6 7 9 7 6
2 5 3 2 5 1 1 3 3 6 7 12 7 6 10 15 16 10 9 16 16 10 8 8 6 3 8 6 11 9 8 6 7 6 3 8 7 4 2 2 1 0 1 1 1 2 3 3 4 5 4 5 5 5 6 5 5 7 7 7 7 8 9 10 11 9 10 9 10 10 10 10 11 12 11 10 11 10 9 9 9 8 7 8 7 6
4 3 4 2 4 3 2 2 5 8 12 4 3 4 13 10 6 15 16 8 4 5 7 9 9 5 9 9 7 7 8 5 1 5 3 3 5 6 5 2 1 0 1 2 3 3 2 3 3 4 4 4 5 5 4 5 4 5 5 6 7 6 8 7 7 8 8 9 9 9 11 12 11 12 13 12 12 12 12 11 12 12 10 9 9 10
4 5 2 2 3 4 3 5 6 8 2 0 4 1 2 6 4 5 8 7 6 10 12 14 17 11 6 6 3 2 8 4 4 2 4 4 4 5 4 3 1 0 1 1 2 4 4 4 5 4 5 4 3 4 3 5 6 7 8 4 4 6 6 7 7 7 8 10 10 10 10 10 12 12 11 12 12 12 12 12 11 12 12 11 10 8
8 4 4 1 3 6 6 9 8 4 7 2 3 3 7 8 7 11 10 11 12 10 11 12 12 6 4 5 4 5 5 5 5 1 1 2 2 2 4 1 1 0 1 2 1 3 3 4 4 5 4 5 5 6 7 6 6 7 8 9 8 8 8 7 8 8 9 9 9 9 9 9 10 11 11 10 11 12 11 12 13 12 8 11 11 10
7 8 4 5 3 5 4 3 1 4 11 12 6 0 3 5 8 7 6 8 4 11 14 13 13 11 7 4 6 7 6 7 4 7 5 4 3 1 0 0 0 1 1 3 3 3 3 3 3 4 4 6 7 5 6 7 8 9 9 10 9 10 11 10 10 9 10 10 10 10 10 9 9 10 11 10 10 11 11 10 9 9 7 9 12 13
1 2 5 9 2 5 5 6 6 9 11 7 3 5 6 7 10 6 3 10 6 8 9 11 11 9 9 10 8 9 8 8 10 7 7 5 4 2 1 0 1 1 2 2 3 5 6 6 6 5 5 5 7 8 6 5 5 6 8 7 8 8 8 9 9 9 11 12 11 10 10 9 9 9 10 11 11 9 11 11 10 10 8 8 8 11
7 5 6 7 7 7 6 7 8 3 6 3 2 1 3 5 8 7 5 9 5 6 10 10 11 13 10 10 13 10 11 10 9 7 7 7 6 4 3 1 1 3 4 4 4 3 4 5 7 9 9 8 8 7 8 6 5 5 6 7 6 7 8 8 9 9 9 9 10 9 9 7 8 9 8 10 11 9 9 8 9 9 8 9 8 9
5 2 8 12 10 10 11 8 3 6 4 3 3 3 4 4 8 9 15 3 2 6 5 9 12 5 9 10 11 10 7 4 4 6 9 5 4 1 0 0 1 1 2 3 3 5 4 4 4 5 6 7 7 7 6 5 6 8 7 7 7 8 8 8 8 9 10 10 11 11 10 9 6 9 10 7 9 10 9 7 8 10 8 10 9 9
5 4 2 6 9 11 9 12 11 3 4 5 0 7 6 9 8 11 5 1 5 6 2 1 5 5 9 12 8 3 5 4 8 7 6 5 5 3 0 0 1 1 1 1 3 3 3 4 5 6 6 5 5 5 5 4 5 6 7 7 9 8 7 8 9 9 10 11 12 12 11 11 11 8 8 9 8 10 12 9 6 8 8 7 8 10
9 7 6 8 4 2 4 7 6 12 3 8 10 2 2 4 6 6 3 2 1 2 5 2 5 7 10 6 4 10 8 6 7 7 6 4 4 2 1 0 1 2 3 3 3 3 1 3 5 6 7 7 6 5 5 5 5 7 6 9 10 8 8 8 9 9 10 11 12 12 12 11 11 11 8 9 8 9 12 11 8 8 6 7 9 9
7 7 3 5 7 7 10 10 6 3 4 6 10 9 7 9 2 4 8 3 2 3 4 5 1 5 4 12 11 8 8 8 5 5 5 3 2 0 0 1 1 2 2 3 3 3 2 3 4 6 6 5 4 3 4 4 5 7 8 11 10 8 8 9 9 9 10 10 11 11 12 11 11 10 8 9 9 9 10 11 10 8 7 6 7 8
5 9 6 9 6 8 6 5 4 3 8 7 0 1 3 2 1 3 3 6 8 3 3 6 8 5 5 10 9 9 6 5 6 4 6 4 3 2 2 2 1 1 1 2 3 2 1 4 5 7 7 6 7 5 4 3 5 7 8 9 7 9 10 10 10 10 11 11 11 11 10 11 11 10 10 9 7 9 10 11 8 10 8 5 6 7
3 1 1 3 3 1 1 0 0 1 0 1 2 1 0 1 0 2 5 7 1 5 7 10 8 7 6 7 11 3 6 6 6 4 3 3 3 2 1 1 1 0 1 1 2 2 2 3 4 5 7 8 7 8 5 4 4 7 9 7 8 9 9 10 11 12 13 12 12 12 11 12 13 11 9 9 7 7 8 9 10 9 10 7 7 7
3 1 1 3 2 6 7 4 4 2 1 1 1 1 2 1 1 2 4 4 6 6 5 4 9 8 8 6 9 9 7 5 6 5 3 2 2 2 2 2 1 0 2 3 4 5 5 5 5 5 5 7 5 6 6 5 5 6 8 8 7 8 9 9 10 11 11 11 11 11 9 10 10 10 10 9 7 7 7 7 7 8 9 8 8 8
4 3 3 2 2 6 4 1 1 1 1 1 1 4 3 2 4 3 3 4 7 6 6 6 7 8 5 7 7 10 7 4 6 4 3 2 1 1 1 0 1 2 2 2 4 4 5 5 5 6 7 8 8 7 7 7 7 7 8 8 8 8 8 8 9 11 12 12 10 10 9 9 11 11 9 9 8 8 9 8 7 8 10 9 8 8
3 6 4 5 7 1 2 1 2 2 2 1 0 1 1 4 6 7 6 8 8 11 9 7 5 4 5 6 6 8 8 4 3 2 1 0 1 1 2 3 3 3 4 5 4 4 5 5 7 7 8 9 7 8 8 9 9 9 9 9 8 8 8 10 10 11 12 11 9 9 8 8 8 8 9 10 9 7 8 9 9 9 10 8 7 8
4 7 3 4 3 3 9 8 7 5 3 5 5 6 5 4 6 9 7 8 7 9 8 11 7 7 7 5 4 5 7 4 3 2 1 1 1 2 2 3 3 4 4 4 4 5 5 6 6 8 8 8 7 8 9 9 9 8 8 8 7 7 8 10 11 12 12 10 10 10 10 9 9 8 8 9 9 10 11 9 13 11 10 10 9 14
8 7 7 6 8 8 7 6 11 4 2 1 9 7 7 6 8 11 8 9 5 5 7 11 10 5 6 6 4 6 5 4 2 2 0 0 1 2 3 4 5 6 7 6 6 5 6 6 6 7 8 8 7 8 9 9 9 9 8 7 8 9 10 10 11 12 11 11 10 11 11 11 11 10 9 8 9 8 10 12 10 12 17 18 14 12
Wind_Direction
113 130 177 190 193 191 190 162 159 170 150 112 78 97 169 158 274 273 274 289 10 106 240 241 277 275 279 273 276 282 318 305 284 278 270 266 265 260 260 253 253 251 248 295 258 248 244 241 229 226 212 219 214 214 208 209 212 209 209 197 213 207 196 197 196 194 192 200 204 210 210 218 207 211 209 211 214 219 220 204 198 199 205 204 199 198
66 146 229 207 200 185 151 126 109 76 60 135 132 126 172 229 117 260 91 342 327 121 286 48 325 278 263 275 269 278 312 274 260 266 267 265 264 267 268 275 266 257 285 291 291 279 278 264 259 244 225 206 206 222 205 210 213 212 206 205 215 192 196 202 202 199 200 203 204 201 212 211 202 199 204 218 212 214 209 211 217 215 204 197 193 197
145 194 225 192 125 100 100 87 74 116 109 56 141 153 103 253 253 294 294 346 332 89 268 32 343 286 278 271 274 255 260 259 256 228 251 261 277 272 259 258 274 292 284 292 262 268 270 280 274 243 228 221 218 218 202 217 213 208 204 211 208 200 196 204 202 196 208 207 208 204 213 202 212 214 205 211 204 200 213 217 216 212 210 213 212 194
147 282 236 156 142 106 53 70 92 74 68 111 103 112 198 241 122 252 287 352 3 73 318 324 328 285 290 286 273 280 244 279 278 270 267 250 257 260 259 260 275 281 282 280 279 287 286 275 276 274 248 235 236 236 217 207 212 211 212 210 207 205 202 202 203 205 209 199 198 217 206 204 204 200 198 206 209 207 214 225 217 224 217 205 203 202
183 254 340 131 141 133 130 95 115 117 120 13 113 123 120 163 222 149 188 331 317 55 56 353 306 303 337 346 337 339 341 328 301 334 302 288 252 266 284 284 247 255 265 281 302 303 301 299 274 249 251 231 217 224 221 210 211 211 217 219 213 210 207 207 200 200 172 141 150 135 63 56 59 5 174 193 226 214 215 224 217 222 205 216 218 204
248 332 141 104 94 84 110 132 192 130 98 351 226 165 192 169 136 280 356 95 21 344 6 48 13 322 305 302 245 292 346 338 319 347 324 317 313 321 308 286 290 277 267 260 275 287 300 293 297 302 300 254 243 236 227 211 216 213 219 204 203 203 202 207 198 176 163 181 176 166 185 202 209 223 208 217 219 208 211 218 217 213 210 218 222 220
193 10 128 153 133 116 124 165 219 142 156 120 245 169 142 140 126 120 102 75 18 126 353 10 125 268 328 318 297 325 334 317 323 357 322 334 340 344 331 315 311 307 312 306 289 291 306 305 311 305 305 280 254 244 229 212 208 211 209 195 191 193 191 181 175 166 170 183 190 196 204 210 212 221 230 228 227 221 221 209 211 218 212 217 222 228
98 64 76 74 95 111 129 186 221 146 120 202 239 120 109 109 125 154 103 99 180 240 294 42 91 210 306 292 272 312 324 309 341 345 348 348 347 345 343 344 346 338 308 297 303 298 265 265 271 297 302 305 287 277 277 236 222 204 202 181 185 180 176 177 171 175 183 192 196 202 213 215 219 219 232 215 224 219 204 200 218 215 218 217 225 230
120 154 142 134 82 106 170 212 174 138 126 221 199 121 128 133 139 117 90 101 105 37 282 334 342 1 260 267 309 352 344 331 338 322 324 329 339 339 343 349 345 341 331 300 298 328 341 351 352 322 312 306 318 342 333 286 252 222 172 164 163 179 174 178 174 178 193 200 199 205 211 223 227 231 237 204 198 205 201 218 220 218 221 219 222 227
345 156 213 147 134 181 231 355 140 119 99 242 130 92 92 80 71 90 101 83 350 68 277 225 26 185 281 278 328 330 261 287 265 295 298 307 311 317 337 339 334 324 327 304 278 303 329 336 347 337 308 352 356 344 353 24 56 81 118 137 152 182 176 170 179 184 195 203 199 206 215 222 232 225 243 193 216 213 194 224 225 222 223 223 225 225
228 320 163 92 179 182 128 50 125 9 115 130 111 81 42 41 31 30 63 87 62 19 252 261 296 168 303 275 234 95 203 200 212 309 308 323 345 354 351 347 348 354 358 7 4 10 352 316 322 345 22 345 353 0 27 29 32 48 82 123 139 175 176 176 189 187 200 202 203 213 215 222 231 228 220 229 244 225 218 226 228 221 225 222 229 227
24 5 86 216 97 110 104 77 23 72 94 120 100 126 77 355 11 28 347 33 114 269 258 282 267 285 169 292 315 232 281 223 171 135 4 344 334 333 340 344 351 356 356 2 29 21 16 25 14 15 13 358 349 12 19 15 20 44 64 112 151 203 196 195 201 199 217 213 223 234 233 233 237 231 223 227 236 221 226 226 231 223 230 233 230 232
42 116 226 344 199 130 122 89 4 13 352 84 91 77 112 236 36 288 11 271 207 195 256 340 182 2 238 229 235 289 256 252 226 205 291 328 323 326 333 341 335 337 357 24 23 28 31 32 22 23 14 12 8 352 349 2 7 10 35 91 163 251 267 238 221 212 225 223 228 226 233 242 240 235 231 235 239 227 228 225 232 220 228 222 225 221
270 285 17 299 73 226 149 127 139 138 323 107 132 133 103 101 64 233 277 260 309 297 270 315 271 266 243 282 249 246 254 209 222 215 236 258 271 296 303 321 329 338 14 20 32 39 37 28 18 21 22 24 21 5 343 335 4 6 22 20 196 266 295 276 257 238 235 237 238 234 235 240 233 240 235 239 239 237 228 219 228 224 223 224 222 217
119 298 247 148 211 159 176 158 173 156 161 199 69 140 174 144 156 199 197 197 213 201 283 278 62 232 112 233 203 214 254 276 256 235 243 259 259 265 281 281 295 3 25 27 43 41 35 26 24 22 18 14 13 21 20 2 341 358 352 338 263 283 290 286 266 267 250 256 255 249 244 242 233 239 237 238 233 238 235 230 233 232 226 227 229 220
200 196 278 308 265 160 165 249 110 103 46 305 162 89 88 224 142 114 207 139 205 299 7 258 214 190 159 302 281 279 304 290 324 266 267 287 267 330 34 26 22 20 28 27 38 29 23 22 24 24 18 13 9 17 24 23 16 21 319 309 297 287 304 300 279 256 246 255 257 249 244 242 239 244 248 257 246 242 230 238 230 241 231 233 233 229
46 226 2 308 52 84 125 217 356 133 171 217 106 191 205 127 98 100 60 15 84 42 259 163 317 295 298 317 351 0 33 301 21 47 94 140 74 77 69 39 35 33 35 30 32 25 17 17 19 20 18 12 13 15 17 7 2 350 339 337 310 301 307 300 283 273 267 269 269 262 251 253 249 243 242 244 247 244 243 241 241 238 237 235 225 227
148 215 349 63 133 353 207 117 104 36 142 96 179 227 177 137 125 123 190 350 64 184 264 72 219 294 40 256 336 54 114 228 28 68 124 106 105 106 106 63 55 43 35 30 30 16 20 26 27 18 18 17 15 9 9 5 359 0 339 327 316 318 314 302 299 293 286 281 274 270 263 255 244 245 248 246 250 247 246 245 243 243 245 232 230 223
119 83 337 0 41 293 2 78 43 10 43 139 199 185 113 213 199 325 89 231 142 269 271 310 265 267 187 240 340 213 165 188 153 132 112 114 121 144 126 88 58 43 47 36 29 27 23 23 20 26 28 9 16 13 17 6 4 12 17 5 354 333 316 294 289 281 283 267 263 260 259 255 257 252 252 252 250 249 245 250 243 241 245 257 237 232
66 137 285 335 129 292 4 98 194 198 349 33 88 79 309 100 156 126 198 174 127 241 56 291 49 235 207 220 212 222 193 179 156 135 142 155 161 154 138 118 73 49 39 32 27 29 35 37 32 24 19 14 5 5 4 10 16 21 7 6 2 352 350 344 324 290 284 277 269 276 278 273 263 267 263 258 255 253 249 252 251 249 253 243 237 237
160 117 164 297 296 78 183 202 215 157 145 75 87 182 139 39 223 105 34 124 181 169 182 214 318 277 258 220 177 227 184 184 155 149 159 169 177 168 147 113 86 56 28 18 21 31 30 26 22 17 14 14 8 19 19 21 15 8 12 14 12 4 351 352 349 344 325 308 289 282 283 282 284 276 271 274 264 263 264 265 256 255 251 261 245 232
97 180 172 133 58 226 240 271 193 171 181 165 164 188 172 126 148 158 250 34 99 119 222 138 251 275 272 158 178 195 194 178 190 146 168 178 181 153 142 131 115 35 355 359 10 28 33 21 14 13 16 20 25 16 12 3 10 14 15 6 1 2 3 350 346 350 337 331 314 307 299 293 288 283 285 280 278 270 272 270 264 257 261 247 253 225
141 125 105 170 206 192 201 20 259 296 82 180 163 215 167 165 106 125 194 235 55 267 102 153 346 268 242 183 206 222 195 203 190 158 153 181 170 155 85 266 276 252 299 333 339 344 16 30 21 11 30 35 31 18 11 8 11 2 360 7 7 7 352 347 324 322 308 304 319 322 316 312 306 299 292 287 282 277 273 273 270 260 255 255 258 241
87 100 79 324 319 315 322 316 48 68 79 18 299 81 149 197 182 168 159 180 157 149 123 357 241 254 288 295 237 243 217 219 240 184 155 181 204 282 278 287 287 346 354 345 336 358 24 26 6 20 21 16 14 10 5 358 352 355 5 3 2 3 348 347 344 330 331 331 329 325 321 321 314 318 308 296 286 283 281 280 278 267 259 261 264 260
160 267 133 120 24 346 343 346 352 349 79 203 183 210 185 85 77 132 102 63 112 217 167 129 234 274 273 337 3 102 128 156 202 239 155 155 182 101 209 292 307 336 334 336 338 349 2 8 19 20 10 10 2 3 360 356 352 359 2 2 359 351 340 337 339 342 342 343 338 341 348 342 340 331 315 299 291 285 287 284 283 275 264 269 265 257
174 174 139 157 176 184 196 195 214 210 197 179 217 155 172 151 137 131 169 108 177 267 152 176 241 255 283 342 51 103 129 171 253 292 316 226 216 178 245 272 304 332 274 297 311 333 339 27 13 8 6 2 0 350 342 345 356 2 6 1 348 348 345 343 342 342 341 347 348 343 344 342 340 338 328 319 313 305 300 295 287 281 269 254 266 263
164 144 200 189 194 205 209 193 41 98 91 181 216 158 177 176 177 145 109 113 212 195 173 237 185 161 232 216 178 181 184 175 203 247 265 255 254 265 255 259 247 199 218 227 222 220 63 25 2 337 315 278 249 259 345 5 5 3 356 351 357 355 346 342 346 344 346 348 351 342 341 339 336 331 326 322 316 311 307 301 291 283 278 265 260 267
87 187 221 203 223 228 151 172 210 141 164 197 154 188 183 169 181 167 180 218 165 90 254 227 166 164 232 217 218 208 224 243 244 233 203 236 251 228 229 232 243 223 245 223 193 175 161 169 70 23 357 3 11 8 16 17 10 357 350 340 341 346 346 345 347 343 344 347 346 344 336 334 327 328 323 319 319 316 312 309 305 295 284 280 274 268
142 199 245 149 249 216 145 176 176 171 178 182 183 177 179 184 173 185 211 220 131 189 233 204 146 213 215 207 212 209 190 202 208 206 198 197 210 208 211 187 178 190 187 41 24 23 18 12 358 357 0 359 3 5 0 360 356 351 341 332 333 339 341 340 338 336 336 339 341 335 328 323 324 320 319 320 320 320 319 316 310 306 300 289 279 271
121 246 198 171 222 208 228 191 198 170 185 146 186 191 186 174 190 198 213 217 194 214 232 155 184 215 193 197 213 216 199 198 199 194 192 200 195 168 108 62 45 33 30 19 5 3 7 359 357 352 348 359 0 355 351 350 349 348 339 336 337 335 331 341 329 326 325 326 317 312 313 314 314 315 315 317 319 317 315 312 309 306 302 295 286 281
151 255 129 151 187 250 186 72 267 224 168 197 219 196 192 193 201 204 211 220 208 251 267 107 205 266 242 195 210 179 187 213 245 242 295 15 48 75 66 52 38 35 13 6 354 355 351 347 348 350 355 351 351 346 341 334 327 325 320 324 327 327 322 314 308 321 328 327 317 308 301 305 301 299 303 297 298 300 303 304 305 305 301 296 291 286
153 231 54 105 162 281 9 124 108 83 47 218 229 196 198 197 210 221 220 205 171 211 230 234 253 255 218 166 199 139 242 273 261 270 327 353 70 107 111 113 74 44 14 346 339 342 351 350 347 348 341 338 336 338 339 335 332 331 336 335 335 334 328 336 342 346 342 327 322 322 326 321 312 309 301 299 296 295 291 289 291 291 289 290 291 287
167 141 145 145 159 251 298 127 125 106 95 295 252 221 205 205 204 213 222 219 208 202 209 207 230 239 158 180 155 192 202 228 240 232 168 231 135 130 133 132 133 184 294 331 326 329 326 333 331 322 325 330 331 332 328 327 327 331 331 333 329 332 341 346 347 341 341 343 342 343 343 340 340 336 334 332 325 313 308 300 297 294 296 292 285 287
78 123 157 166 159 237 8 145 114 108 204 227 236 203 170 195 201 189 205 213 219 184 211 215 234 80 142 146 165 193 193 208 204 216 197 168 161 154 150 168 179 248 295 273 254 260 277 302 315 315 306 299 302 306 302 310 303 306 312 313 325 338 343 344 342 343 337 340 344 343 342 342 341 338 334 332 331 331 330 330 325 315 298 294 299 289
113 95 137 160 109 152 197 111 98 207 229 237 298 189 188 191 165 202 220 227 222 232 272 289 268 199 180 182 180 182 188 213 93 129 123 143 134 138 144 166 186 9 323 311 325 317 293 278 290 302 312 314 313 307 310 310 312 310 321 335 337 339 335 338 330 333 336 337 337 342 343 341 340 336 334 333 334 334 333 333 328 329 327 321 317 313
151 110 148 48 131 63 97 167 202 229 221 326 278 0 40 124 167 161 269 269 218 201 202 232 240 237 156 205 220 134 166 133 92 66 134 162 141 141 132 134 126 161 349 304 303 302 312 318 312 307 302 291 298 303 312 324 331 338 332 330 331 333 336 332 333 330 338 338 338 340 339 338 333 331 331 330 330 330 328 328 327 324 324 320 314 304
151 107 122 197 197 170 180 201 225 8 338 263 254 233 161 161 158 170 213 245 222 208 199 220 237 232 154 194 132 109 105 95 99 197 275 215 198 151 133 145 182 231 238 267 236 271 278 279 290 300 309 324 335 341 344 339 342 339 334 342 344 342 339 340 337 339 337 331 330 331 332 332 327 324 323 323 323 321 321 324 322 321 321 313 311 308
158 171 196 183 231 156 156 179 261 247 249 238 220 342 155 160 156 173 161 265 214 206 204 207 224 228 185 135 127 143 127 92 187 237 238 239 231 215 293 276 301 253 253 275 296 298 305 308 312 321 342 333 334 339 341 346 345 343 341 339 341 344 339 341 335 334 333 328 329 326 326 325 321 316 316 316 315 313 310 310 302 301 313 307 309 307
48 109 162 188 210 134 207 218 210 213 235 252 225 177 190 175 154 119 165 253 247 197 201 198 219 221 174 162 161 148 142 186 226 204 206 197 218 222 135 330 318 296 299 309 319 329 332 333 337 323 337 342 338 336 346 341 340 338 329 328 331 334 330 328 326 331 328 322 319 318 316 316 313 310 308 308 305 306 305 307 305 303 306 296 291 289
143 164 144 194 205 203 212 220 232 199 250 264 238 240 205 129 115 98 199 248 243 131 186 183 203 214 187 165 154 162 166 213 225 219 182 178 180 190 157 86 3 352 340 340 339 314 306 323 346 342 340 339 326 331 332 334 334 325 317 319 323 323 321 319 321 316 311 308 307 304 303 301 302 297 295 297 298 297 292 295 300 300 301 298 292 292
154 138 197 200 200 213 213 240 272 277 275 244 223 182 147 169 126 161 218 236 227 208 212 183 202 175 138 143 162 174 228 196 183 139 123 128 100 130 258 273 259 279 302 326 316 337 341 326 332 306 305 306 311 318 319 328 333 322 319 318 321 312 310 313 314 314 312 311 309 308 306 303 295 299 298 287 289 294 293 289 291 300 303 302 303 299
184 155 206 193 206 204 207 222 232 274 233 165 312 153 180 121 205 208 228 213 158 189 202 173 134 149 155 162 169 148 141 121 93 90 118 145 141 150 184 298 347 341 294 295 302 334 316 315 313 306 304 295 302 311 313 323 317 304 309 313 304 299 308 315 315 314 314 311 310 307 306 306 306 299 293 298 300 299 298 295 285 284 292 295 295 300
180 175 189 186 187 180 192 220 213 229 248 132 134 89 296 164 234 195 146 46 148 145 145 152 151 163 148 145 145 128 135 134 131 134 140 138 120 127 94 57 12 328 325 342 347 326 309 308 306 301 298 309 315 315 310 324 314 307 310 305 298 310 316 315 315 313 310 308 306 304 302 302 301 301 304 299 297 292 291 295 298 292 292 294 298 297
186 188 180 198 181 200 195 209 204 204 139 188 151 198 200 200 190 155 130 102 45 117 141 127 118 165 164 134 137 134 137 125 108 118 115 121 151 13 13 358 318 327 313 309 293 295 303 278 279 286 291 295 296 296 300 310 305 307 306 298 303 312 311 312 310 307 303 300 297 298 298 299 297 295 293 290 293 291 288 293 296 294 287 288 292 295
210 200 179 201 189 190 206 203 216 181 178 209 145 46 195 179 143 154 116 138 141 194 173 124 153 161 156 131 129 134 128 146 150 152 138 180 168 186 204 230 213 226 246 269 287 294 305 291 299 300 302 307 315 324 326 313 302 297 293 292 309 306 310 310 311 309 304 302 300 299 298 300 297 297 296 292 288 293 295 295 298 299 298 291 288 285
336 218 50 98 251 22 328 159 9 29 289 261 59 357 34 51 32 122 139 118 173 145 172 159 157 150 141 135 121 123 136 152 138 162 159 158 170 224 207 255 294 247 265 285 284 307 297 294 291 299 302 310 313 313 321 311 294 291 288 301 304 303 303 308 309 308 304 304 303 302 305 305 302 300 293 291 285 273 275 282 292 292 292 294 281 281
254 151 123 173 263 168 248 182 168 189 49 24 106 33 27 44 168 169 156 137 143 138 124 118 139 149 153 146 137 141 144 147 143 154 165 156 172 191 189 201 210 9 342 335 329 343 335 330 320 306 300 299 302 307 312 312 294 282 297 305 302 301 300 301 300 295 295 294 297 297 298 295 295 300 301 294 286 277 272 270 275 279 280 281 284 283
278 187 158 208 175 175 231 280 281 317 261 279 193 143 152 107 66 49 94 105 110 100 99 115 117 112 124 116 133 129 139 142 139 154 162 175 177 177 158 75 352 331 337 345 333 334 326 316 310 315 319 315 317 321 318 318 314 310 310 309 309 303 299 297 296 297 297 297 293 290 290 289 287 289 291 291 289 289 292 279 260 269 274 278 279 284
202 122 205 189 194 247 16 307 291 33 40 73 352 325 144 141 122 107 108 113 115 108 99 70 53 98 99 121 116 121 120 118 102 115 112 84 49 35 19 0 352 340 329 338 330 336 319 320 325 321 318 311 317 320 320 318 315 314 314 311 307 304 306 305 304 300 298 297 294 290 286 278 282 285 290 292 291 268 247 269 281 269 269 256 241 248
99 189 198 137 150 173 199 205 162 136 233 232 216 189 156 159 125 119 116 109 117 119 120 105 79 66 75 69 88 109 124 122 95 80 94 38 40 358 358 344 334 328 325 320 320 319 325 330 319 310 308 307 317 317 313 310 309 308 305 304 306 310 313 313 312 309 307 309 304 304 304 303 297 293 290 291 295 300 292 247 235 242 258 273 252 248
188 192 150 174 183 213 226 203 186 165 94 245 174 167 164 162 146 133 142 136 122 119 131 124 118 87 76 55 47 94 98 111 85 67 95 78 325 2 9 351 339 337 331 330 332 333 330 317 311 307 305 307 313 311 308 307 309 308 307 310 322 328 322 321 317 311 308 311 309 307 307 303 302 299 295 290 291 293 295 305 294 248 246 254 255 250